www.pogodaiklimat.ru

Погода и климат >> Архив погоды >> Узбекистан >> Янгиер


ПОГОДА в Янгиере

  • Прогноз погоды в Янгиере
  • Монитор погоды в Янгиере

АРХИВ ПОГОДЫ в Янгиере

Время (UTC), дата Ветер
(напр.,м/с)
 
Видим.   Явления Облачность Т
(С)
Тd
(С)
f
(%)
Тe
(С)
Тes
(С)
Комфортность P
(гПа)
Po
(гПа)
Тmin
(С)
Tmax
(С)
R
(мм)
R24
(мм)
S
(см)
03 16.09 штиль 0 20 км ясно +15.4 +6.1 54 +15 +18 1020.8 983.4
06 16.09 З 1 20 км ясно +25.4 +6.4 30 +25 +39 комфорт 1019.5 983.3 +13.6
09 16.09 СЗ 2 20 км ясно +27.6 +4.1 22 +26 +37 жарко 1018.1 982.3
12 16.09 С 1 20 км 10/10 600 м
[Cb cap]
+26.0 +5.6 27 +25 +25 комфорт 1018.5 982.5
15 16.09 штиль 0 н/о ясно +18.4 +9.0 54 +19 +19 1019.9 982.8 +28.2
18 16.09 Ю 1 н/о ясно +15.8 +6.7 55 +17 +17 1020.9 983.6 +28.2
00 17.09 Ю 2 н/о ясно +10.3 +5.8 74 +9 +9 1021.5 983.4
03 17.09 штиль 0 20 км ясно +17.4 +6.7 49 +17 +20 1021.5 984.2
09 17.09 В 1 20 км ясно +28.0 +3.6 21 +26 +39 жарко 1019.3 983.5
12 17.09 В 2 20 км ясно +28.2 +4.6 22 +27 +28 жарко 1017.0 981.3
15 17.09 В 2 н/о 3/0
[Ac trans]
+20.0 +6.8 42 +21 +21 комфорт 1017.5 980.7 +28.8
18 17.09 В 2 н/о ясно +15.6 +6.8 56 +16 +16 1017.1 979.8 +28.8
21 17.09 В 4 н/о ясно +19.8 +7.6 45 +21 +21 комфорт 1016.1 979.3
00 18.09 ЮВ 3 н/о ясно +15.6 +7.4 58 +15 +15 1016.6 979.4
03 18.09 В 2 20 км ясно +19.6 +8.2 48 +21 +23 комфорт 1016.1 979.3
06 18.09 В 5 20 км ясно +28.2 +4.6 22 +27 +33 жарко 1013.5 977.9 +15.5
09 18.09 В 4 20 км ясно +32.4 +3.6 16 +30 +37 жарко 1011.8 976.7
12 18.09 В 2 20 км ясно +32.0 +4.8 18 +30 +31 жарко 1011.5 976.4
15 18.09 ЮВ 1 н/о ясно +21.2 +8.5 44 +22 +22 комфорт 1013.3 976.7 +33.0
18 18.09 Ю 1 н/о ясно +15.4 +8.5 63 +16 +16 1015.5 978.2 +33.0
21 18.09 Ю 1 н/о ясно +15.6 +5.3 50 +16 +16 1016.4 979.2
00 19.09 ЮВ 1 н/о 6/0
[Ac trans]
+15.2 +7.8 61 +16 +16 1016.2 978.9
03 19.09 В 3 20 км 5/0
[Ac trans]
+22.2 +6.2 35 +23 +24 комфорт 1016.7 980.1
06 19.09 В 7 20 км ясно +28.8 +7.6 26 +28 +31 жарко 1015.2 979.7 +15.1
09 19.09 В 4 20 км ясно +32.6 +3.2 16 +30 +37 жарко 1013.8 978.7
12 19.09 ЮВ 2 20 км ясно +33.2 +6.7 19 +31 +33 жарко 1013.7 978.6
15 19.09 Ю 1 н/о ясно +21.6 +11.3 52 +24 +24 комфорт 1015.5 979.0 +33.8
18 19.09 Ю 1 н/о ясно +19.4 +7.4 46 +21 +21 комфорт 1015.9 979.0 +33.8
00 20.09 Ю 1 н/о ясно +15.4 +7.1 58 +16 +16 1015.8 978.5
03 20.09 СВ 1 20 км ясно +17.0 +9.2 60 +18 +20 1015.9 978.8
06 20.09 СЗ 1 20 км ясно +29.6 +6.7 24 +28 +41 жарко 1014.4 979.0 +15.3
12 20.09 С 1 20 км ясно +32.6 +8.5 23 +31 +33 жарко 1011.8 976.8
18 20.09 Ю 2 н/о ясно +22.0 +9.2 44 +23 +23 комфорт 1014.3 977.8 +33.6
21 20.09 Ю 1 н/о ясно +19.6 +7.7 46 +22 +22 комфорт 1012.8 976.1
00 21.09 Ю 1 н/о ясно +18.4 +7.1 48 +20 +20 1013.2 976.3
03 21.09 ЮВ 2 20 км ясно +19.0 +8.4 50 +20 +22 1012.9 976.1
06 21.09 ЮВ 3 20 км ясно +30.4 +10.7 30 +31 +39 жарко 1011.9 976.6 +18.3
09 21.09 СВ 4 20 км ясно +34.0 +8.8 21 +33 +39 жарко 1009.0 974.1
12 21.09 В 2 20 км ясно +34.4 +9.8 22 +33 +35 жарко 1008.6 973.8
15 21.09 ЮВ 2 н/о ясно +22.6 +11.8 50 +25 +25 комфорт 1009.7 973.5 +35.0
18 21.09 В 1 н/о ясно +19.0 +7.4 47 +21 +21 комфорт 1009.6 972.9 +35.0
21 21.09 Ю 2 н/о ясно +17.4 +6.7 49 +18 +18 1008.3 971.5
00 22.09 ЮВ 4 н/о ясно +21.8 +7.8 41 +23 +23 комфорт 1007.9 971.7
03 22.09 ЮВ 5 20 км ясно +24.6 +10.9 42 +26 +27 жарко 1008.2 972.2

 

Местоположение метеостанции Янгиер (Сырдарьинская область, Узбекистан): широта 40.22 долгота 68.83 высота над уровнем моря 317 м.

В архиве по умолчанию представлена погода в Янгиере за последнюю неделю. Архивные данные за месяц целиком и за предыдущие месяцы, начиная с января 2011 года, Вы можете получить, выбрав интересующий диапазон дат из раскрывающегося списка и нажав кнопку "Ввод!".


*Определитесь, кто Вы:
робот инопланетянин человек

Внимание! Время в таблицах - всемирное. Для получения местного времени необходимо прибавить поправку, которая равна 5 ч.

Смотрите также архив погоды в соседних городах и на ближайших метеорологических станциях:

Погода в Бекабаде (Ташкентская область, Узбекистан) (37 км)
Погода в Истаравшане (Таджикистан) (38 км)
Погода в Сырдарье (Сырдарьинская область, Узбекистан) (68 км)
Погода в Алмалыке (Ташкентская область, Узбекистан) (71 км)
Погода в Исфане (Баткенская область, Киргизия) (73 км)
Погода в Шахристанском (Таджикистан) (73 км)
Погода в Жетысае (Южно-Казахстанская область, Казахстан) (75 км)
Погода в Худжанде (Таджикистан) (76 км)
Погода в Дустлике (Джизакская область, Узбекистан) (78 км)
Погода в Кайракумском (Таджикистан) (83 км)

Пояснения к столбцам:

Ветер - указаны скорость ветра в м/с - средняя за 10 мин, порывы в срок и между сроками (в фигурных скобках) и направление, откуда дует ветер: С - северный, СВ - северо-восточный, В - восточный, ЮВ - юго-восточный, Ю - южный, ЮЗ - юго-западный, З - западный, СЗ - северо-западный.
Видимость - горизонтальная дальность видимости в метрах или километрах. При видимости от 1 до 10 км при отсутствии осадков обычно наблюдается дымка, при ухудшении видимости до 1 км и менее - туман. В сухую погоду видимость может ухудшаться дымом, пылью или мглою.
Явления - указаны атмосферные явления, наблюдавшиеся в срок или в последний час перед сроком; фигурными скобками обозначены явления, наблюдавшиеся между сроками (за 1-3 часа до срока); квадратными скобками обозначены град или гололедные отложения с указанием их диаметра в мм.
Облачность - указаны через наклонную черту общая и нижняя облачность в баллах и высота нижней границы облаков в метрах; квадратными скобками обозначены формы облаков: Ci - перистые, Cs - перисто-слоистые, Cc - перисто-кучевые, Ac - высококучевые, As - высокослоистые, Sc - слоисто-кучевые, Ns - слоисто-дождевые, Cu - кучевые, Cb - кучево-дождевые. Подробнее классификацию облаков см. в Атласе облаков (PDF).
T - Температура воздуха - температура, измеренная на высоте 2 м над землей.
Td - Температура точки росы - температура, при понижении до которой содержащийся в воздухе водяной пар достигнет насыщения.
f - Относительная влажность воздуха - влажноcть воздуха, измеренная на высоте 2 м над землей.
Te - Эффективная температура - температура, которую ощущает одетый по сезону человек в тени. Характеристика душности погоды. При расчете учитывается влияние влажности воздуха и скорости ветра на теплоощущения человека.
Tes - Эффективная температура на солнце - температура, которую ощущает человек, с поправкой на солнечный нагрев. Характеристика знойности погоды. Зависит от высоты солнца над горизонтом, облачности и скорости ветра. Ночью, в пасмурную погоду, а также при ветре 12 м/с и более поправка равна нулю.
P - Атмосферное давление - приведенное к уровню моря атмосферное давление.
Po - Атмосферное давление - измеренное на уровне метеостанции атмосферное давление.
Tmin - Минимальная температура - минимум температуры воздуха на высоте 2 м над землей.
Tmax - Максимальная температура - максимум температуры воздуха на высоте 2 м над землей.
R - Количество осадков - Количество выпавших осадков за период времени, мм. При наведении курсора мыши на число - период времени, за который выпало указанное количество осадков.
R24 - Количество осадков - Количество выпавших осадков за 24 часа, мм.
S - Снежный покров - Высота снежного покрова, см. При наведении курсора мыши на число - состояние снежного покрова и степень покрытия местности в баллах.